COSMOS 2251 DEB, 35594

Orbit data source: Space-Track

COSMOS 2251 DEB, 35594 is space debris in LEO originally from a launch on Wed, 16 Jun 1993 UTC launched from the Plesetsk Missile And Space Complex (PKMTR). The debris from Iridium 33, an American commercial communications satellite, has been tracked extensively since its accidental collision with the defunct Russian satellite Cosmos 2251 in 2009. This event, occurring at high speed in low Earth orbit (LEO), generated thousands of pieces of space debris, significantly increasing the risk of further collisions. The Iridium 33 debris cloud has impacted space traffic management and orbital debris mitigation strategies, making it a subject of ongoing study in space situational awareness.

Loading next visibility...
Identifier
35594, 1993-036AMM
Orbit
LEO
Country
Flag of CISCIS
Related business
Manufacturer
Unknown
Mission
Spacecraft
Bus & Motor
Unknown
Mass
Unknown
Launch date (UTC)
1993-06-16 (32 years ago)
Launch vehicle
Unknown
Launch site
Plesetsk Missile And Space Complex (PKMTR)
Object type
Payload
Rocket body
Debris
Shape & HBR
Unknown shape, 0.1 m
Radar Cross Section
Small (<0.1 m²)

Expand to show TLE details & history
Last TLE update: 2 days ago

TLE from 2 days ago
0 COSMOS 2251 DEB
1 35594U 93036AMM 25302.13389193  .00018119  00000-0  20415-2 0  9990
2 35594  73.8086 196.6123 0032647 309.8252  50.0053 14.86207370875224
Epoch: 2025-10-29T03:12Z
TLE epoch observation values (Epoch: 2025-10-29T03:12:48.262Z)
Latitude
-0.0001°
Longitude
110.69978°
Altitude
597.836 km
Speed
7.569 km/s
True Right ascension
13h 06m 26s
True Declination
0° 00' 00"
Sunlit
Object was in daylight at epoch
Visualization orbit readout
Latitude
Unknown
Longitude
Unknown
Altitude
Unknown
Speed
Unknown
Apparent Right ascension
Unknown
Apparent Declination
Unknown
Sunlit
N/A
Visualization observer readout
Local Sidereal Time
14:50:37
Azimuth
Unknown
Elevation
Unknown
Doppler factor
Unknown
Orbital elements
Apogee altitude
630.193 km
Perigee altitude
584.582 km
Semi-major axis
6,985.524 km
Eccentricity
0.00326
Inclination
73.8086°
RAAN
196.6123°
Arg. of periapsis
309.8252°
True anomaly
50.29266°
Mean anomaly
50.0053°
Eccentric anomaly
50.1489°
Mean motion
3.71745 °/min
Orbital period
96.84 mins
BSTAR
0.0020415

Documentation

Showing up to 5 results
|